CW8095 Weather Reports


time (UTC)temp
C
wind
direction
speed
KPH
gust
KPH
rain 1hr
cm
rain 24hr
cm
rain mn
cm
humidity
%
barometer
mb
20260507135021 21 18 3.2 9.7 0.00 0.28 0.00 57 1020.5
20260507134017 18 43 1.6 4.8 0.00 0.28 0.00 66 1020.5
20260507133027 16 308 0.0 1.6 0.00 0.28 0.00 74 1020.5
20260507132023 16 271 0.0 3.2 0.00 0.28 0.00 73 1020.5
20260507131018 16 256 0.0 3.2 0.00 0.28 0.00 73 1020.8
20260507130029 15 253 1.6 4.8 0.00 0.28 0.00 80 1020.6
20260507125024 14 249 0.0 1.6 0.00 0.28 0.00 83 1020.7
20260507124020 12 232 0.0 1.6 0.00 0.28 0.00 86 1020.7
20260507121543 11 156 0.0 3.2 0.00 0.28 0.00 88 1020.5
20260507120537 11 0.0 0.0 0.00 0.28 0.00 88 1020.7
20260507115528 11 240 0.0 1.6 0.00 0.28 0.00 89 1020.7
20260507114522 11 255 0.0 3.2 0.00 0.28 0.00 89 1020.5
20260507113516 11 264 0.0 1.6 0.00 0.28 0.00 89 1020.3
20260507112526 11 265 0.0 1.6 0.00 0.28 0.00 88 1020.0
20260507111521 11 265 0.0 1.6 0.00 0.28 0.00 87 1019.9
20260507110530 11 261 0.0 1.6 0.00 0.28 0.00 87 1019.9
20260507105527 11 239 0.0 1.6 0.00 0.28 0.00 87 1019.6
20260507104523 11 258 0.0 1.6 0.00 0.28 0.00 86 1019.4
20260507103531 11 249 0.0 1.6 0.00 0.28 0.00 86 1019.1
20260507102526 11 239 0.0 3.2 0.00 0.28 0.00 85 1018.8
20260507101522 11 0.0 0.0 0.00 0.28 0.00 85 1018.9
20260507100519 11 235 0.0 1.6 0.00 0.28 0.00 85 1018.5
20260507095530 11 236 0.0 3.2 0.00 0.28 0.00 84 1018.6
20260507094527 11 20 1.6 4.8 0.00 0.28 0.00 84 1018.2
20260507093523 11 6 1.6 4.8 0.00 0.28 0.00 83 1018.1
20260507092522 11 48 1.6 4.8 0.00 0.28 0.00 82 1018.0
20260507091520 12 76 1.6 3.2 0.00 0.28 0.00 81 1018.2
20260507090525 12 25 3.2 6.4 0.00 0.28 0.00 81 1018.2
20260507085530 12 27 3.2 6.4 0.00 0.28 0.00 81 1018.0
20260507084518 12 5 3.2 6.4 0.00 0.28 0.00 80 1017.8
20260507083520 12 52 4.8 9.7 0.00 0.28 0.00 80 1017.5
20260507082519 12 70 3.2 9.7 0.00 0.28 0.00 79 1017.7
20260507081528 13 33 4.8 12.9 0.00 0.28 0.00 79 1017.8
20260507080549 13 8 3.2 6.4 0.00 0.28 0.00 80 1017.8
20260507075530 13 27 3.2 9.7 0.00 0.28 0.00 78 1017.8
20260507074044 13 34 4.8 11.3 0.00 0.28 0.00 78 1017.6
20260507073028 13 11 6.4 12.9 0.00 0.28 0.00 78 1017.3
20260507072033 13 73 4.8 9.7 0.00 0.28 0.00 79 1017.1
20260507071039 13 60 6.4 9.7 0.00 0.28 0.00 79 1016.9
20260507070030 14 66 6.4 11.3 0.00 0.28 0.00 78 1017.0
20260507065024 14 62 6.4 12.9 0.00 0.28 0.00 76 1016.9
20260507064023 15 53 9.7 16.1 0.00 0.28 0.00 75 1017.0
20260507063028 15 52 9.7 16.1 0.00 0.28 0.00 75 1017.1
20260507062024 15 58 8.0 17.7 0.00 0.28 0.00 76 1017.0
20260507061034 15 56 6.4 12.9 0.00 0.28 0.00 77 1017.0
20260507060020 15 61 8.0 12.9 0.00 0.28 0.00 77 1016.8
20260507055025 15 42 8.0 16.1 0.00 0.28 0.00 76 1016.9
20260507054102 15 60 8.0 14.5 0.00 0.28 0.00 76 1017.0
20260507053037 15 65 9.7 14.5 0.00 0.28 0.00 77 1017.0
20260507052045 15 62 8.0 14.5 0.00 0.28 0.00 77 1017.0
20260507051026 15 59 6.4 12.9 0.00 0.28 0.00 77 1017.0
20260507050041 15 56 6.4 12.9 0.00 0.28 0.28 78 1017.0
20260507045023 15 55 8.0 12.9 0.00 0.28 0.28 78 1017.0
20260507044518 15 55 6.4 12.9 0.00 0.28 0.28 78 1017.1
20260507043540 15 63 8.0 12.9 0.00 0.28 0.28 78 1017.2
20260507042527 15 59 8.0 14.5 0.00 0.28 0.28 78 1017.3
20260507041530 15 59 6.4 12.9 0.00 0.28 0.28 78 1017.4
20260507040531 15 61 8.0 12.9 0.00 0.28 0.28 78 1017.3
20260507035526 15 69 9.7 20.9 0.00 0.28 0.28 79 1017.3
20260507034601 15 66 8.0 16.1 0.00 0.28 0.28 79 1017.4
20260507033516 15 62 8.0 17.7 0.00 0.28 0.28 79 1017.3
20260507032530 15 68 8.0 14.5 0.00 0.28 0.28 79 1017.2
20260507031609 15 80 3.2 6.4 0.00 0.28 0.28 80 1017.2
20260507030604 15 65 1.6 4.8 0.00 0.28 0.28 81 1017.1
20260507025518 15 39 3.2 9.7 0.00 0.28 0.28 81 1016.9
20260507024528 15 74 4.8 9.7 0.00 0.28 0.28 80 1016.8
20260507023524 15 78 4.8 11.3 0.00 0.28 0.28 79 1016.5
20260507022516 15 68 6.4 11.3 0.00 0.28 0.28 79 1016.3
20260507021607 16 65 6.4 11.3 0.00 0.28 0.28 79 1016.0
20260507020522 16 80 4.8 11.3 0.00 0.28 0.28 79 1015.9
20260507015518 16 65 6.4 14.5 0.00 0.28 0.28 79 1015.6
20260507014528 16 78 4.8 12.9 0.00 0.28 0.28 79 1015.4
20260507013523 16 23 4.8 11.3 0.00 0.28 0.28 78 1015.2
20260507012518 16 65 1.6 4.8 0.00 0.28 0.28 79 1014.9
20260507011548 16 81 4.8 6.4 0.00 0.28 0.28 79 1014.7
20260507010544 16 65 3.2 6.4 0.00 0.28 0.28 79 1014.6
20260507005539 16 78 3.2 4.8 0.00 0.28 0.28 78 1014.5
20260507004549 17 81 3.2 4.8 0.00 0.28 0.28 77 1014.6
20260507003524 17 71 3.2 6.4 0.00 0.28 0.28 77 1014.7
20260507002519 17 58 1.6 4.8 0.00 0.28 0.28 76 1014.5
20260507001530 17 61 3.2 4.8 0.18 0.28 0.28 76 1014.4
20260507000525 17 76 1.6 3.2 0.28 0.28 0.28 77 1014.4
20260506235520 17 75 1.6 4.8 0.28 0.28 0.28 75 1014.2
20260506234536 17 22 1.6 4.8 0.28 0.28 0.28 75 1014.3
20260506233526 17 296 1.6 6.4 0.28 0.28 0.28 75 1013.9
20260506232522 17 331 4.8 11.3 0.28 0.28 0.28 71 1013.8
20260506231517 18 67 4.8 14.5 0.10 0.10 0.10 64 1013.9
20260506230527 19 258 4.8 11.3 0.00 0.00 0.00 59 1014.0
20260506225522 19 68 4.8 11.3 0.00 0.00 0.00 59 1013.7
20260506224517 19 240 3.2 6.4 0.00 0.00 0.00 59 1013.9
20260506223548 20 8 3.2 11.3 0.00 0.00 0.00 58 1013.9
20260506222523 20 281 4.8 11.3 0.00 0.00 0.00 56 1013.6
20260506221518 20 81 3.2 12.9 0.00 0.00 0.00 57 1013.4
20260506220529 20 283 4.8 17.7 0.00 0.00 0.00 57 1013.8
20260506215544 20 50 3.2 9.7 0.00 0.00 0.00 57 1013.5
20260506214519 20 326 4.8 12.9 0.00 0.00 0.00 56 1013.7
20260506213530 20 261 4.8 14.5 0.00 0.00 0.00 55 1013.6
20260506212525 21 54 3.2 9.7 0.00 0.00 0.00 54 1013.5
20260506211520 20 28 4.8 12.9 0.00 0.00 0.00 54 1013.7
20260506210515 21 326 4.8 14.5 0.00 0.00 0.00 52 1013.6
20260506205606 21 339 4.8 14.5 0.00 0.00 0.00 53 1013.8
20260506204521 21 335 3.2 16.1 0.00 0.00 0.00 54 1013.8
20260506203516 21 260 4.8 16.1 0.00 0.00 0.00 54 1014.0
20260506202527 20 354 4.8 14.5 0.00 0.00 0.00 55 1014.4
20260506201522 19 10 4.8 11.3 0.00 0.00 0.00 58 1014.2
20260506200537 19 16 4.8 17.7 0.00 0.00 0.00 57 1014.6
20260506195608 19 323 4.8 11.3 0.00 0.00 0.00 59 1014.7
20260506194523 18 58 4.8 14.5 0.00 0.00 0.00 60 1014.6
20260506193518 18 28 4.8 9.7 0.00 0.00 0.00 61 1014.6
20260506192529 17 246 4.8 16.1 0.00 0.00 0.00 63 1014.6
20260506191525 17 252 4.8 14.5 0.00 0.00 0.00 65 1014.7
20260506190520 16 209 3.2 6.4 0.00 0.00 0.00 65 1015.1
20260506185530 17 259 8.0 14.5 0.00 0.00 0.00 64 1015.2
20260506184525 17 254 6.4 12.9 0.00 0.00 0.00 65 1015.0
20260506183541 16 231 1.6 9.7 0.00 0.00 0.00 66 1014.8
20260506182516 16 322 1.6 6.4 0.00 0.00 0.00 66 1015.0
20260506181526 16 49 4.8 14.5 0.00 0.00 0.00 65 1015.0
20260506180521 17 284 6.4 16.1 0.00 0.00 0.00 64 1014.4
20260506175537 17 13 8.0 22.5 0.00 0.00 0.00 65 1013.6
20260506174648 17 38 9.7 35.4 0.00 0.00 0.00 64 1013.2
20260506173522 17 360 4.8 17.7 0.00 0.00 0.00 66 1013.5
20260506172518 17 75 4.8 16.1 0.00 0.00 0.00 66 1014.1
20260506171528 16 21 8.0 14.5 0.00 0.00 0.00 67 1014.3
20260506170523 16 351 6.4 17.7 0.00 0.00 0.00 69 1014.5
20260506165518 15 27 4.8 12.9 0.00 0.00 0.00 70 1015.0
20260506164529 16 28 8.0 22.5 0.00 0.00 0.00 68 1014.8
20260506163544 16 49 9.7 22.5 0.00 0.00 0.00 66 1014.2
20260506162519 18 23 8.0 22.5 0.00 0.00 0.00 62 1014.3
20260506161549 18 61 8.0 16.1 0.00 0.00 0.00 61 1014.1
20260506160524 17 68 9.7 20.9 0.00 0.00 0.00 65 1014.4
20260506155520 15 25 8.0 16.1 0.00 0.00 0.00 73 1014.6
20260506154515 15 63 1.6 6.4 0.00 0.00 0.00 75 1014.7
20260506153546 14 33 4.8 11.3 0.00 0.00 0.00 74 1014.3
20260506152601 14 321 4.8 14.5 0.00 0.00 0.00 75 1014.8
20260506151516 14 291 4.8 16.1 0.00 0.00 0.00 77 1014.8
20260506150526 13 286 4.8 16.1 0.00 0.00 0.00 75 1015.1
20260506145521 14 269 8.0 16.1 0.00 0.00 0.00 72 1016.3
20260506144516 14 250 4.8 11.3 0.00 0.00 0.00 71 1015.9
20260506143526 14 260 4.8 11.3 0.00 0.00 0.00 71 1015.3
20260506142521 14 134 4.8 17.7 0.00 0.00 0.00 70 1014.4
20260506141517 15 357 6.4 20.9 0.00 0.00 0.00 68 1014.2
20260506140527 15 0 6.4 17.7 0.00 0.00 0.00 66 1014.2